sat.trackr.live / text

‹ back to catalog

STARLINK-2033

NORAD 47650 · 2021-012AG

PAYLOAD ACTIVE UNKNOWN

§ Identity

Operator
Country
US
Launch date
2021-02-16
Launch site
AFETR
Launch vehicle
Mass (kg)
RCS (m²)

Purposes: comms

External: N2YO · Heavens-Above · Gunter

§ Orbital elements

Epoch: 2026-09-09T15:17:11.056992Z

Period
92.32 min
Inclination
53.1571°
Eccentricity
0.0007706
Mean motion
15.59788759 rev/d
Perigee alt
383.1 km
Apogee alt
393.5 km
Semi-major
6,766.4 km
B*
7.8680e-4
RAAN
257.5642°
Arg perigee
38.1317°
Mean anomaly
322.0241°
Rev number
30,869

§ Raw data

STARLINK-20331 47650U 21012AG  26252.63693353  .00064318  00000+0  78680-3 0  99962 47650  53.1571 257.5642 0007706  38.1317 322.0241 15.59788759308694

JSON: /api/v1/satellites/47650 · /tle

For live sub-satellite position, see the globe view (requires WebGL).

§ Visibility from observer

Set your observer location to see the next 7 days of passes ≥ 10°. The values pass through the URL so the page stays shareable.

No JS? Fill the form by hand. The geolocation button needs JavaScript.